Tracking 28096 objects as of 29-Sep-2023
HD Live streaming from Space Station
objects crossing your sky now

OPS 1570

Track OPS 1570 now!
OPS 1570 is classified as:


NORAD ID: 5851
Int'l Code: 1972-010A
Perigee: 35,899.2 km
Apogee: 35,963.7 km
Inclination: 2.2 °
Period: 1,443.1 minutes
Semi major axis: 42302 km
RCS: Unknown
Launch date: March 1, 1972
Source: United States (US)
Launch site: AIR FORCE EASTERN TEST RANGE (AFETR)
Your satellite tracking list
Your tracking list is empty




NASA's NSSDC Master Catalog

Two Line Element Set (TLE):
1 05851U 72010A   23271.73326605 -.00000344  00000-0  00000-0 0  9998
2 05851   2.1953 275.8827 0007625 329.2578 166.4300  0.99782704 16021
Source of the keplerian elements: McCants